TimeEST,TemperatureF,Dew PointF,Humidity,Sea Level PressureIn,VisibilityMPH,Wind Direction,Wind SpeedMPH,Gust SpeedMPH,PrecipitationIn,Events,Conditions,WindDirDegrees,DateUTC
12:48 AM,48.2,44.6,87,29.97,10.0,SW,4.6,-,N/A,,Mostly Cloudy,230,2013-02-23 05:48:00
12:53 AM,48.9,44.1,83,29.96,10.0,Variable,3.5,-,N/A,,Mostly Cloudy,0,2013-02-23 05:53:00
1:53 AM,48.9,44.1,83,29.95,10.0,Calm,Calm,-,N/A,,Overcast,0,2013-02-23 06:53:00
2:53 AM,48.0,43.0,83,29.94,10.0,Variable,3.5,-,N/A,,Overcast,0,2013-02-23 07:53:00
3:53 AM,48.0,43.0,83,29.94,10.0,Variable,5.8,-,N/A,,Overcast,0,2013-02-23 08:53:00
4:19 AM,48.2,42.8,82,29.94,10.0,Calm,Calm,-,N/A,,Overcast,0,2013-02-23 09:19:00
4:53 AM,48.0,43.0,83,29.93,10.0,SSW,3.5,-,N/A,,Overcast,210,2013-02-23 09:53:00
5:23 AM,46.4,42.8,87,29.94,10.0,Calm,Calm,-,N/A,,Overcast,0,2013-02-23 10:23:00
5:40 AM,46.4,42.8,87,29.95,10.0,NW,5.8,-,N/A,,Overcast,310,2013-02-23 10:40:00
5:53 AM,46.0,42.1,86,29.94,10.0,Calm,Calm,-,N/A,,Overcast,0,2013-02-23 10:53:00
6:19 AM,44.6,41.0,87,29.94,10.0,NW,4.6,-,N/A,,Overcast,320,2013-02-23 11:19:00
6:53 AM,43.0,39.9,89,29.93,10.0,Calm,Calm,-,N/A,,Mostly Cloudy,0,2013-02-23 11:53:00
7:53 AM,43.0,39.0,86,29.94,10.0,WNW,4.6,-,N/A,,Overcast,300,2013-02-23 12:53:00
8:04 AM,42.8,39.2,87,29.94,10.0,WNW,4.6,-,N/A,,Overcast,300,2013-02-23 13:04:00
8:53 AM,43.0,37.9,82,29.96,10.0,WNW,3.5,-,N/A,,Overcast,290,2013-02-23 13:53:00
9:53 AM,43.0,37.9,82,29.95,10.0,Variable,3.5,-,N/A,,Overcast,0,2013-02-23 14:53:00
10:53 AM,42.1,37.0,82,29.96,10.0,Variable,3.5,-,N/A,,Overcast,0,2013-02-23 15:53:00
11:53 AM,44.1,37.0,76,29.95,10.0,Calm,Calm,-,N/A,,Overcast,0,2013-02-23 16:53:00
12:26 PM,44.6,37.4,76,29.93,10.0,Variable,3.5,-,N/A,,Overcast,0,2013-02-23 17:26:00
12:53 PM,48.9,37.9,66,29.92,10.0,Variable,6.9,-,N/A,,Overcast,0,2013-02-23 17:53:00
1:16 PM,50.0,37.4,62,29.91,10.0,Calm,Calm,-,N/A,,Scattered Clouds,0,2013-02-23 18:16:00
1:39 PM,50.0,37.4,62,29.90,10.0,Variable,4.6,-,N/A,,Mostly Cloudy,0,2013-02-23 18:39:00
1:53 PM,48.9,36.0,61,29.89,10.0,Variable,6.9,-,N/A,,Mostly Cloudy,0,2013-02-23 18:53:00
2:22 PM,48.2,35.6,62,29.89,10.0,WNW,8.1,-,N/A,,Scattered Clouds,300,2013-02-23 19:22:00
2:53 PM,50.0,35.1,57,29.90,10.0,Variable,5.8,-,N/A,,Clear,0,2013-02-23 19:53:00
3:53 PM,48.0,32.0,54,29.89,10.0,Variable,4.6,-,N/A,,Clear,0,2013-02-23 20:53:00
4:53 PM,46.9,32.0,56,29.88,10.0,NW,4.6,-,N/A,,Clear,310,2013-02-23 21:53:00
5:53 PM,45.0,30.9,58,29.88,10.0,WNW,4.6,-,N/A,,Clear,300,2013-02-23 22:53:00
6:53 PM,43.0,28.9,58,29.87,10.0,NW,3.5,-,N/A,,Clear,320,2013-02-23 23:53:00
7:53 PM,43.0,28.9,58,29.88,10.0,Calm,Calm,-,N/A,,Clear,0,2013-02-24 00:53:00
8:53 PM,39.9,28.9,65,29.90,10.0,Variable,3.5,-,N/A,,Clear,0,2013-02-24 01:53:00
9:53 PM,39.0,28.0,65,29.91,10.0,WNW,3.5,-,N/A,,Mostly Cloudy,300,2013-02-24 02:53:00
10:53 PM,37.9,27.0,65,29.94,10.0,West,4.6,-,N/A,,Overcast,260,2013-02-24 03:53:00
11:53 PM,37.0,27.0,67,29.93,10.0,West,4.6,-,N/A,,Scattered Clouds,270,2013-02-24 04:53:00